Theta_e
313 311 310 310 307 307 306 307 307 308 309 313 313 315 314 312 314 315 314 312 313 310 310 313 314 315 316 320 319 319 323 322 320 320 320 318 318 318 316 315 316 315 315 315 314
316 312 311 310 309 308 308 308 308 308 308 312 313 315 313 313 317 315 313 314 316 314 313 314 317 317 320 319 320 321 323 321 319 318 319 318 317 317 316 316 317 315 315 314 312
318 312 311 310 310 310 309 309 309 309 308 311 313 315 315 313 318 316 314 315 314 313 311 312 314 318 320 319 319 320 320 318 318 317 317 316 316 315 315 317 315 314 314 314 309
319 313 312 310 310 311 310 310 310 309 309 311 313 314 314 315 321 314 314 315 313 311 312 315 317 319 320 320 318 318 318 317 317 316 315 315 314 315 314 315 313 313 313 309 308
320 314 312 311 310 311 311 311 311 311 310 311 314 316 315 319 317 312 315 314 313 312 313 315 317 317 319 318 318 318 318 315 314 314 314 313 314 314 315 315 311 313 309 308 307
321 315 312 311 310 311 312 313 314 312 310 312 315 316 318 320 312 313 314 312 311 312 314 315 315 315 318 318 317 317 316 315 314 314 313 314 313 312 315 313 310 310 308 307 305
321 316 312 310 309 310 313 313 315 313 310 314 315 316 319 318 311 315 312 311 310 310 314 311 311 315 317 318 315 314 316 317 315 314 313 313 314 314 314 311 310 310 307 305 304
321 317 312 310 308 309 313 316 316 313 311 316 315 317 319 312 313 315 312 313 309 309 310 308 310 313 315 315 316 316 317 318 316 314 313 313 314 314 314 310 311 309 306 305 304
321 318 312 310 307 309 312 317 317 310 312 315 317 318 318 314 317 314 313 310 310 310 309 307 311 314 315 318 317 319 319 318 316 314 313 313 314 315 314 310 310 306 304 303 303
320 317 312 308 305 308 312 319 314 311 313 316 316 320 316 318 316 312 310 308 312 313 315 316 316 315 318 314 315 314 314 316 316 314 314 314 314 312 311 309 308 304 302 301 301
320 316 310 306 304 306 310 314 318 320 314 317 317 317 316 316 312 312 309 311 313 314 318 317 315 316 317 313 312 314 315 315 314 313 312 310 310 310 308 306 305 302 300 299 299
320 318 309 304 303 305 309 313 312 311 315 314 315 316 315 313 314 313 310 313 313 317 318 318 320 315 312 313 315 314 312 311 311 313 311 309 308 309 307 303 303 300 299 298 297
319 318 309 301 304 308 309 309 309 312 316 316 314 317 316 312 313 313 311 312 314 317 317 315 316 310 312 314 312 312 310 312 311 310 309 308 308 308 303 301 300 299 299 298 296
320 319 309 301 307 307 311 305 311 311 319 319 316 317 311 311 314 309 308 310 316 315 312 310 310 313 313 311 310 311 308 308 308 308 307 306 306 309 305 303 299 299 298 297 296
319 318 313 300 306 310 307 306 310 310 330 315 317 309 311 312 312 312 307 310 313 314 310 312 307 309 308 310 309 310 304 306 307 308 307 307 306 308 309 306 299 297 296 295 295
319 318 316 304 303 306 305 310 308 321 327 319 317 317 315 311 312 312 311 308 309 308 308 308 308 310 311 310 307 303 305 305 306 306 308 307 305 307 306 300 297 296 295 295 294
318 318 316 301 308 305 307 311 322 324 319 320 317 315 315 317 315 313 313 312 313 314 315 310 311 309 306 309 308 305 305 306 312 313 314 304 302 303 299 297 296 295 294 294 294
317 317 314 306 303 305 313 315 325 324 324 314 315 313 316 315 316 311 311 314 310 310 309 310 312 310 306 307 305 304 303 304 307 309 308 303 301 302 298 296 296 295 294 294 293
317 312 310 308 302 306 308 319 319 322 320 316 314 318 321 312 310 310 311 314 310 309 310 309 307 303 299 301 302 306 303 301 301 302 300 302 301 299 297 296 296 294 294 293 292
313 309 313 308 304 309 307 317 319 317 313 313 322 321 322 321 315 313 315 310 307 306 305 307 306 305 298 298 297 298 299 299 299 301 303 303 302 301 297 295 294 293 293 292 292
310 310 309 306 309 308 311 314 315 315 312 315 319 321 320 318 317 317 317 310 306 303 302 304 303 302 299 298 300 296 296 295 296 298 298 301 302 296 295 294 293 293 292 292 292
306 316 308 309 310 309 312 314 311 310 308 313 312 316 318 319 319 316 317 313 305 301 302 301 302 301 300 296 294 295 296 296 296 298 295 296 297 297 296 294 293 292 292 292 292
307 309 307 309 314 314 311 310 309 311 310 311 311 311 314 314 316 314 314 300 302 301 301 297 298 300 302 295 294 294 294 295 296 294 297 298 298 295 295 296 293 292 292 292 291
308 313 310 310 311 315 316 315 313 310 311 312 314 314 313 311 312 314 308 298 298 299 295 297 297 300 308 307 294 294 294 294 294 296 297 296 296 296 296 294 293 291 291 291 289
308 311 311 314 312 313 316 317 317 319 312 311 311 313 312 312 314 310 307 297 296 295 295 295 298 298 298 297 295 294 294 294 293 295 295 296 295 295 294 293 291 291 291 290 289
317 314 306 312 318 315 315 317 318 318 319 315 313 314 309 312 313 317 307 302 300 297 297 296 299 295 295 295 294 294 294 295 294 293 294 294 294 294 294 291 291 291 290 289 289
314 308 310 317 316 318 317 316 318 317 317 316 316 314 312 309 304 302 302 301 302 299 297 296 297 296 299 294 293 297 296 294 294 294 293 293 294 294 291 291 291 290 289 289 287
Wind_Speed
21 23 25 25 27 28 28 28 28 31 29 21 24 11 6 8 9 8 10 9 13 15 10 7 4 4 3 1 1 3 4 3 2 2 3 4 6 6 2 6 4 3 7 16 17
21 23 25 26 27 28 28 28 28 30 31 21 22 8 11 9 5 15 8 15 16 13 8 8 5 6 3 1 2 3 3 3 5 4 8 9 8 9 5 8 13 12 15 19 21
21 23 25 27 28 28 28 28 27 30 32 22 19 6 7 5 2 4 12 18 12 9 5 6 6 5 5 2 1 1 4 3 2 3 8 9 6 4 8 7 10 12 17 16 18
21 23 25 26 28 28 28 28 27 30 30 20 17 3 5 4 2 4 13 14 13 9 6 8 5 5 5 4 2 5 3 1 0 3 7 7 7 8 3 9 9 14 15 15 15
21 23 25 27 28 28 28 27 28 31 27 17 15 1 2 3 4 6 12 10 8 7 8 8 5 5 5 5 6 4 3 1 3 7 7 7 6 4 5 6 16 14 14 13 14
20 22 24 27 28 28 28 27 29 32 24 18 11 2 2 2 2 7 10 7 10 8 7 6 6 6 4 4 4 3 8 8 1 1 3 7 9 2 3 12 14 14 12 12 14
20 21 24 26 27 27 28 27 30 28 21 18 5 4 6 4 1 7 10 4 8 7 4 3 3 6 4 6 3 5 7 3 5 2 1 11 4 5 6 13 11 11 10 11 13
20 20 23 26 27 27 26 26 28 24 15 11 4 1 3 0 2 7 10 3 4 4 2 2 1 5 3 3 4 3 2 3 5 2 3 10 12 6 7 10 5 9 6 6 10
21 20 22 25 27 27 25 25 22 19 12 5 2 3 4 0 1 7 7 5 6 2 1 1 2 3 4 7 10 8 5 11 6 5 3 6 15 8 13 4 7 7 7 8 10
21 21 21 24 25 25 25 21 19 6 11 1 2 2 3 1 3 8 6 5 3 7 4 4 4 6 7 8 9 12 13 10 13 3 10 9 14 16 10 8 8 6 7 10 12
20 21 19 22 23 20 24 10 7 3 9 3 10 5 2 5 1 3 5 6 4 5 11 6 8 10 5 7 10 11 11 13 16 5 9 13 17 18 10 9 8 5 7 10 14
19 20 18 20 20 14 13 5 3 2 9 4 3 4 3 1 2 3 8 4 5 14 13 14 13 5 7 6 7 12 16 16 9 3 12 17 20 14 11 8 6 5 7 10 12
17 19 17 17 14 9 8 3 1 1 5 2 2 2 2 2 1 2 7 3 5 12 12 11 14 4 5 9 13 13 16 11 11 14 17 14 15 13 13 11 7 4 6 8 15
15 17 16 15 3 6 2 7 1 1 5 4 4 4 2 1 2 3 4 3 4 9 8 10 4 4 8 12 5 13 5 11 15 15 11 17 7 14 17 11 4 4 7 13 19
12 15 15 10 6 4 2 4 2 2 6 1 4 2 2 3 2 3 1 3 9 15 3 4 5 8 11 7 2 6 10 11 18 19 21 12 8 10 14 14 3 5 11 16 20
11 13 14 6 4 3 4 1 1 4 8 3 2 3 3 4 3 1 2 2 1 6 9 16 0 3 5 2 3 8 11 19 20 10 6 2 3 7 2 0 2 8 14 19 20
13 13 13 6 1 3 0 2 5 6 3 5 3 2 1 3 3 1 3 6 6 6 7 7 11 2 3 6 7 7 9 7 3 4 7 10 7 12 9 4 4 11 17 19 19
14 15 12 9 6 3 1 4 9 8 8 3 2 1 5 3 3 3 4 9 9 7 7 7 8 9 4 3 4 1 2 4 7 6 12 14 9 5 12 7 1 12 18 18 21
13 9 7 7 11 7 4 9 7 4 1 4 3 6 10 3 4 4 9 13 4 13 9 5 6 4 3 1 2 6 5 4 5 2 5 8 10 6 11 4 5 16 18 19 21
4 4 9 9 10 5 6 18 13 1 3 3 7 7 14 11 6 5 5 6 5 8 2 0 9 5 5 2 1 4 8 3 4 5 7 7 19 12 10 6 11 19 19 19 22
5 3 3 9 9 5 11 11 16 13 9 9 13 16 14 12 14 15 9 7 10 9 7 1 5 5 4 9 12 5 5 6 4 4 4 8 8 6 2 3 14 19 19 21 23
6 4 6 12 7 5 13 9 4 11 11 11 5 14 20 18 17 12 15 9 12 12 10 7 4 9 13 3 5 7 11 14 6 7 8 8 14 14 5 4 13 18 20 23 22
3 3 5 6 8 13 11 10 9 12 11 10 11 10 11 17 10 16 13 4 11 12 13 9 6 4 4 3 4 6 10 17 14 4 15 10 9 8 12 17 17 19 20 21 23
4 4 3 3 7 15 19 22 21 11 19 16 16 14 10 10 15 12 7 4 6 10 4 8 7 11 12 10 1 6 13 17 16 11 16 22 30 20 21 17 19 20 20 22 21
5 6 6 7 9 20 22 17 20 22 14 7 10 22 14 12 17 17 15 6 6 5 5 5 9 13 17 18 15 16 16 17 22 24 20 29 22 21 19 19 17 19 21 23 22
9 5 3 7 16 19 23 22 31 29 22 15 22 14 18 27 22 20 9 7 6 12 12 5 6 6 6 13 14 19 19 21 23 25 26 25 29 22 19 11 16 20 21 21 21
20 6 4 14 15 17 21 30 32 23 25 27 24 18 20 21 5 6 7 6 5 12 16 8 7 4 7 5 9 14 22 25 26 21 19 20 24 17 14 12 16 19 19 19 21
Wind_Direction
5 6 6 5 5 6 5 3 3 3 3 360 3 18 115 99 60 51 46 347 335 339 334 302 287 320 249 169 349 305 244 236 108 264 354 121 325 351 321 287 357 30 11 5 348
0 1 1 1 1 2 0 359 359 358 359 359 2 18 139 111 86 64 8 346 334 336 342 342 338 319 234 221 185 269 279 62 32 336 303 328 348 331 323 334 32 4 8 0 28
356 357 356 356 357 357 356 356 356 353 357 357 1 8 199 201 205 31 347 348 351 345 315 313 302 296 269 251 91 45 327 49 67 316 313 323 313 330 324 44 29 358 349 31 33
352 353 353 353 353 352 353 353 352 350 352 354 1 25 129 178 7 358 344 359 8 5 336 326 303 303 294 291 56 290 59 254 255 303 313 327 325 318 24 53 358 14 30 41 40
348 350 349 351 351 349 350 349 348 347 349 353 357 78 157 115 65 330 347 2 7 14 18 359 335 334 307 322 308 255 90 336 295 296 297 326 303 348 91 28 357 45 58 47 45
345 346 347 348 348 347 346 347 344 343 347 351 2 89 239 154 313 339 353 3 18 13 10 9 353 334 269 273 265 4 301 285 354 318 286 335 313 229 103 5 8 70 63 51 43
341 342 344 346 346 346 344 345 340 340 347 352 27 90 76 104 345 0 356 13 19 8 347 35 344 282 349 284 50 302 297 124 160 210 189 314 199 161 12 350 11 85 66 51 41
339 340 341 345 345 345 343 342 335 338 349 3 53 337 71 279 6 1 3 306 358 1 29 1 322 283 257 323 206 238 237 3 130 223 165 328 306 4 352 357 73 94 68 54 42
338 337 340 344 344 344 343 340 327 334 3 15 17 311 140 143 327 340 354 321 312 321 290 290 252 286 212 279 295 200 331 318 303 245 232 319 297 309 322 80 129 105 60 27 15
336 336 341 342 343 344 345 338 324 354 4 339 22 218 163 100 326 334 331 326 309 310 260 258 254 273 235 345 321 304 303 305 293 7 327 289 288 313 326 115 130 104 46 24 14
332 338 341 341 342 347 355 350 344 213 26 330 314 280 13 328 346 342 342 312 286 259 326 331 303 306 328 324 306 300 292 294 292 78 320 307 305 310 107 126 135 97 37 22 19
327 337 339 341 340 350 19 46 43 325 309 198 246 269 252 306 220 30 348 300 321 317 316 305 296 16 312 305 298 295 295 301 309 346 317 309 298 293 141 129 120 71 33 19 2
323 337 339 339 342 7 44 54 307 11 266 197 205 259 124 242 47 22 347 340 311 305 316 289 293 332 292 299 300 293 305 317 302 309 287 301 292 138 145 136 124 72 17 2 355
317 335 337 339 14 354 23 346 11 241 271 166 181 153 165 161 202 47 31 345 286 301 319 286 15 309 289 282 310 297 6 317 305 313 308 320 289 187 165 164 123 39 10 359 351
309 328 336 345 319 313 291 331 68 275 292 110 148 116 138 227 95 166 132 185 273 291 248 286 291 291 283 298 329 294 341 306 295 289 301 273 231 257 165 194 123 9 4 358 353
297 320 331 341 311 256 310 44 303 247 245 168 147 168 214 190 177 80 228 161 299 270 243 266 176 248 274 234 238 300 291 302 276 274 260 141 264 237 208 290 5 359 358 354 350
284 305 319 303 296 260 299 250 269 234 108 177 196 208 244 259 280 317 262 235 258 284 249 198 222 177 245 257 207 262 314 315 302 224 272 156 313 246 148 126 22 355 354 349 346
275 293 300 266 252 224 207 232 247 262 248 82 134 153 245 353 220 214 236 270 212 242 283 271 265 187 151 257 342 337 280 258 285 296 294 310 251 299 131 141 0 352 353 347 342
258 286 270 261 217 190 219 223 253 255 59 179 182 251 265 203 262 249 230 253 254 202 215 241 249 117 35 355 279 137 206 18 276 242 277 238 234 149 165 213 335 343 348 344 336
238 258 250 234 188 185 221 232 239 170 151 206 244 237 264 272 211 213 246 176 205 210 201 263 281 171 118 157 122 270 129 161 202 268 266 265 297 275 189 321 336 341 341 335 332
193 252 180 169 156 211 223 225 247 234 197 212 247 254 258 268 244 266 254 184 189 173 193 167 231 139 152 208 220 179 211 219 285 234 266 302 282 107 357 2 344 333 335 333 333
166 231 158 155 191 217 229 236 229 224 217 243 275 260 263 263 261 243 250 233 163 160 173 188 241 252 241 48 291 271 244 210 217 209 223 267 272 286 198 9 339 332 332 332 334
199 230 173 197 223 228 235 252 254 227 211 207 229 225 249 251 257 236 253 54 176 181 175 170 207 242 236 239 178 217 220 234 236 311 243 250 257 154 202 323 340 328 327 328 331
161 228 173 211 274 252 243 240 238 206 248 235 253 238 229 243 231 263 220 197 205 212 98 180 220 228 255 303 109 216 216 214 213 237 256 238 267 270 289 308 325 320 324 326 322
176 221 202 204 225 236 240 249 248 242 218 226 247 230 217 247 231 238 237 131 199 192 198 217 248 240 263 274 276 260 254 224 219 237 244 268 261 276 297 315 321 316 323 324 321
213 199 193 259 237 217 225 232 239 242 239 222 234 229 219 235 223 261 186 156 186 196 199 207 254 285 270 265 273 271 259 248 247 242 247 256 271 274 284 317 311 318 321 315 322
216 196 204 234 221 235 222 234 242 241 243 244 245 239 237 239 262 78 108 168 202 183 203 199 205 191 259 15 317 281 246 238 240 231 235 246 255 279 292 314 315 313 310 315 323